Theta_e
317 318 318 317 317 319 321 322 324 328 330 329 329 329 329 329 328 331 331 330 337 344 345 346 345 346 345 346 348 348 348 349 348 349 349 350 350 350 350 349 349 349 349 349 349 349 349 348 347 345 346 345 343 343 342 341 339 338 338 336 332 328 326 326 326 326 326 327 326 326 325 325 330 334 335 336 338 340 341 344 347 348 348 348 348 346
317 317 317 316 316 318 321 323 324 326 328 327 327 327 327 328 328 330 330 329 335 340 343 345 345 345 344 343 347 349 348 348 348 348 348 349 349 349 350 350 349 349 349 349 349 349 350 349 348 347 347 347 346 345 344 343 342 341 340 339 336 331 327 326 326 326 326 327 326 326 326 325 328 334 336 336 337 338 339 342 345 346 347 348 348 347
318 317 317 317 317 319 323 326 326 326 327 327 328 326 325 328 328 329 330 329 331 336 339 344 343 343 344 342 346 349 348 348 348 348 348 348 349 349 349 349 349 349 349 349 349 349 350 350 349 349 349 348 348 348 347 346 345 344 343 341 339 335 330 328 327 328 328 328 328 327 326 325 326 332 337 337 338 339 339 340 342 344 346 346 347 347
319 319 317 317 319 321 323 328 329 327 327 327 328 326 325 327 326 326 330 329 330 332 337 342 342 342 344 341 344 348 348 348 348 348 348 348 349 348 349 349 349 350 349 349 349 350 350 350 350 350 349 349 349 349 348 348 348 347 346 344 342 339 335 333 331 331 330 330 330 330 328 326 326 331 337 339 340 341 340 339 339 341 343 344 346 347
321 322 320 318 320 322 322 326 328 328 328 327 328 327 326 327 326 327 330 330 330 332 334 336 333 337 344 342 343 346 347 349 348 348 348 347 348 348 348 348 348 349 349 349 349 349 350 350 350 350 350 350 349 349 348 348 348 348 347 346 344 342 340 339 337 335 334 333 333 332 330 327 327 333 338 340 341 342 340 339 338 338 340 342 344 347
322 323 321 319 319 321 321 323 326 326 327 327 327 327 327 327 327 327 329 327 327 330 333 330 324 331 344 344 342 344 346 350 349 348 349 348 348 348 348 348 348 348 348 348 349 349 349 349 349 350 350 349 349 348 348 348 348 348 347 347 346 345 344 344 342 339 336 335 335 335 333 330 329 333 336 338 340 340 339 338 338 339 339 340 343 346
321 322 321 320 319 320 321 322 324 327 327 326 328 328 327 327 327 327 327 326 326 329 333 330 326 330 341 342 341 343 346 349 350 349 349 348 348 348 348 348 347 348 348 348 348 348 349 349 349 349 349 349 349 348 348 348 348 348 348 348 348 348 348 347 346 343 339 338 338 338 336 333 331 331 332 333 336 339 338 338 338 339 339 340 342 345
322 322 323 323 320 320 321 321 324 328 326 326 330 329 327 326 327 327 326 325 328 330 328 330 331 329 333 339 342 343 345 347 349 350 349 348 349 348 348 348 348 348 347 347 347 348 348 348 349 349 349 349 348 348 348 348 348 348 348 348 348 349 349 349 348 346 343 341 340 340 339 337 334 331 332 333 335 339 340 340 340 340 340 340 341 344
322 323 323 324 323 322 321 321 324 327 327 329 330 330 328 327 327 327 326 325 327 327 323 326 330 327 331 342 344 343 344 346 347 349 349 348 348 349 348 348 348 348 348 347 347 347 347 348 348 349 348 349 349 349 349 348 348 348 348 348 348 349 349 349 349 348 347 344 342 342 343 342 339 334 333 333 336 339 341 341 341 341 340 339 340 343
323 323 322 323 324 323 323 324 326 327 328 329 329 328 328 326 326 327 327 325 325 324 323 324 326 324 329 337 339 339 342 344 345 347 347 348 348 348 348 348 348 348 347 347 347 347 347 347 348 348 348 349 349 349 349 349 349 348 349 349 349 349 349 349 349 349 348 347 346 345 345 345 343 338 335 334 336 339 341 341 342 341 340 338 339 342
322 323 322 323 323 323 324 325 325 327 327 328 328 327 326 327 327 328 328 326 324 323 322 323 325 325 325 329 334 337 340 343 344 345 345 346 347 348 348 348 348 348 348 348 348 347 347 347 347 348 348 349 349 349 349 349 349 349 349 349 349 349 349 349 349 349 349 348 348 347 347 347 344 341 338 335 336 339 340 341 341 341 340 337 337 340
320 323 324 324 323 323 325 325 325 327 327 327 329 328 326 328 327 325 326 325 323 323 323 324 326 325 323 325 332 336 339 343 343 343 345 344 345 347 348 348 348 348 348 348 348 347 347 347 347 348 348 349 349 349 350 349 349 349 349 349 349 349 349 349 349 349 349 349 349 348 348 348 346 344 341 338 337 339 340 340 341 341 339 337 336 337
318 320 324 325 324 323 324 325 325 326 327 328 330 328 327 327 327 326 326 325 324 325 327 327 325 323 323 326 330 335 340 341 340 341 342 342 344 345 347 348 348 348 348 348 348 347 347 347 347 347 347 348 349 349 350 350 350 349 349 349 349 349 349 349 350 350 349 349 349 348 348 348 348 347 344 341 340 340 340 340 341 340 339 337 335 335
319 320 322 324 325 324 323 324 324 324 326 327 327 327 327 327 328 328 328 327 326 328 329 327 325 324 324 327 329 332 336 338 338 338 340 341 342 344 346 347 347 348 348 348 348 347 347 347 347 347 347 348 348 349 349 350 350 350 349 349 349 349 349 350 350 350 350 349 349 349 349 348 349 348 347 345 343 343 342 340 340 340 338 337 335 335
320 320 321 323 324 325 324 323 324 326 326 326 327 328 327 328 330 330 330 328 326 329 329 325 325 324 324 331 334 329 329 333 335 337 338 340 341 342 344 346 346 347 348 348 348 347 347 347 347 347 347 347 348 348 349 350 350 350 350 350 350 350 349 350 350 350 350 349 349 349 349 349 349 349 349 347 346 345 344 342 340 339 339 338 336 335
318 319 319 318 318 321 325 324 324 327 325 325 328 327 326 329 331 330 331 329 325 326 326 323 327 329 329 335 335 328 327 328 332 336 337 338 340 341 343 344 345 347 347 348 348 348 348 347 347 348 347 347 348 348 349 349 349 350 350 350 350 350 350 350 350 350 350 349 349 349 349 349 350 349 349 348 347 346 345 343 341 340 340 339 337 337
318 319 315 313 315 319 322 325 324 326 326 326 326 326 327 329 329 327 328 328 322 323 325 323 324 327 326 329 330 327 329 329 330 334 336 338 339 340 342 343 344 345 346 347 348 348 348 348 347 348 347 347 348 348 349 349 349 349 349 349 350 350 350 350 349 350 349 349 349 349 349 350 350 350 349 347 346 345 345 344 342 341 340 340 339 338
314 315 314 313 318 319 318 321 325 325 328 328 325 326 328 329 329 327 326 325 322 324 328 326 322 321 322 328 333 331 331 331 331 334 336 337 339 340 341 342 343 345 346 346 347 348 348 348 348 348 348 348 348 348 348 349 349 349 349 349 350 349 350 350 349 350 350 350 349 349 349 350 349 349 348 347 346 345 345 344 343 342 341 340 340 339
312 316 318 316 318 319 316 320 326 326 327 328 327 327 329 329 327 326 326 326 326 326 327 326 324 323 323 327 332 330 331 333 332 333 336 338 339 340 341 342 343 344 345 345 347 347 348 348 348 348 348 348 348 348 348 349 349 349 349 349 349 349 349 349 350 350 350 350 350 349 349 349 350 349 348 347 347 346 346 345 344 343 341 340 340 340
311 317 324 320 316 318 318 320 324 326 326 327 327 328 331 330 326 326 327 327 328 328 327 323 321 324 328 329 330 329 332 334 333 334 337 337 339 340 340 342 342 343 344 345 345 347 347 348 348 348 348 348 348 348 348 349 349 349 350 349 350 349 349 349 350 350 350 350 350 349 349 349 350 350 349 348 347 347 346 345 345 344 342 341 340 340
311 317 322 319 316 318 321 322 323 325 326 326 325 326 328 328 326 327 326 325 327 329 328 322 321 328 335 333 331 331 331 332 333 336 336 335 337 339 341 342 342 342 344 344 345 346 346 348 348 348 349 349 348 348 349 349 349 349 349 350 350 350 350 350 350 350 350 350 350 350 350 350 350 350 349 348 348 347 346 346 346 345 344 343 341 340
312 316 319 317 317 319 320 319 319 321 321 321 323 325 326 326 325 327 326 324 323 327 330 327 321 329 337 332 328 328 328 327 329 334 335 333 334 338 340 341 342 343 343 344 344 345 346 347 348 348 349 349 349 349 349 349 349 349 350 350 350 350 350 350 350 350 350 350 350 350 350 350 350 349 349 348 348 347 346 346 346 345 345 344 342 340
313 316 317 316 316 316 316 315 316 316 317 319 321 323 326 327 324 325 326 326 323 324 329 328 321 327 338 334 328 327 326 323 324 328 331 331 332 336 340 340 342 343 343 344 344 344 346 346 347 348 349 349 349 349 349 349 349 349 349 349 350 350 350 349 350 349 350 350 350 350 350 350 350 350 349 349 348 347 346 345 345 345 345 343 341 340
314 317 316 316 318 317 317 316 315 316 317 319 321 320 321 324 323 324 329 329 325 322 324 326 322 325 334 334 328 326 326 322 320 323 327 330 331 334 337 339 341 342 342 344 344 344 345 346 347 348 349 349 349 349 349 349 349 349 349 350 349 350 350 349 350 350 350 350 349 349 350 350 350 350 349 348 348 347 345 344 344 344 343 341 340 339
315 316 317 320 325 323 320 320 322 322 318 316 317 317 317 320 322 324 329 326 324 323 323 325 323 323 332 336 329 325 326 326 324 322 323 328 330 333 335 337 339 341 342 343 343 344 345 346 348 348 349 350 349 349 349 349 350 349 349 350 350 350 350 349 350 350 350 350 350 350 350 350 350 350 349 348 348 347 346 345 345 343 342 341 340 339
314 315 316 320 326 325 322 323 323 321 316 313 315 315 315 318 317 320 324 321 323 326 324 323 323 323 330 336 332 331 332 331 330 324 322 324 327 331 334 336 337 339 341 342 342 344 345 346 348 348 349 350 349 350 349 349 349 349 349 350 350 350 350 350 350 350 350 350 350 350 350 350 350 349 349 349 348 348 347 346 345 343 342 341 340 339
314 315 315 316 320 320 319 318 315 314 314 314 315 315 315 316 315 319 322 320 326 330 324 325 327 324 328 332 330 333 335 335 338 333 326 323 324 327 331 334 336 338 339 341 342 343 345 346 347 348 349 350 349 350 349 349 349 350 350 350 350 350 350 350 350 350 350 350 350 350 350 350 350 349 349 348 348 348 347 346 345 344 342 341 340 339
312 315 315 314 315 314 313 313 312 313 314 314 315 315 315 316 316 319 321 321 328 328 321 327 332 324 324 329 330 331 331 334 340 336 326 324 325 326 328 329 334 337 338 340 342 343 345 346 347 349 349 349 350 350 349 350 350 350 350 349 350 350 350 350 350 350 350 350 350 350 350 350 350 349 349 349 348 348 348 347 346 345 343 342 341 339
311 313 313 313 313 313 312 313 312 313 313 313 314 315 315 317 318 320 321 322 327 325 321 331 340 329 324 333 337 336 334 331 332 329 325 325 327 326 326 326 331 336 338 339 341 343 344 346 347 348 349 349 350 350 350 350 350 350 350 350 350 350 350 350 350 350 350 350 350 350 350 349 349 349 349 349 349 349 348 348 347 346 345 344 342 340
310 313 313 312 313 313 312 312 312 313 314 314 316 318 319 323 326 325 323 323 324 323 324 336 343 333 329 337 342 344 342 339 338 339 340 338 332 327 326 325 329 336 339 339 341 343 344 346 347 348 349 350 349 350 350 350 350 350 350 350 350 350 350 350 350 350 350 350 350 350 349 349 349 349 349 349 349 349 349 349 348 347 346 345 343 342
310 313 314 313 314 314 313 313 313 313 314 315 320 324 325 330 336 332 328 331 332 329 327 330 332 332 335 339 344 347 347 348 347 347 349 348 342 332 327 328 331 337 339 340 341 342 343 346 347 348 349 350 349 350 350 350 351 351 350 350 350 350 350 350 350 350 350 350 350 350 349 350 350 349 349 349 350 350 350 350 349 349 348 346 345 343
310 312 312 313 315 317 316 315 314 314 317 321 325 326 324 330 339 337 333 336 339 339 338 330 329 338 343 345 348 348 347 350 350 349 351 351 349 340 332 333 336 338 340 341 341 343 344 345 347 348 349 350 350 349 350 351 351 351 351 351 351 351 351 351 351 351 351 350 350 350 350 350 350 350 350 350 350 350 351 351 351 350 350 348 346 345
309 310 311 313 316 319 317 313 314 318 326 330 328 324 322 326 333 335 334 332 332 337 342 339 338 341 343 345 350 351 349 349 349 349 350 351 351 346 337 336 339 339 340 342 342 343 345 346 347 348 348 349 350 349 350 351 350 351 351 351 351 351 351 351 351 351 351 351 350 351 350 350 350 350 350 350 350 351 351 351 352 352 351 350 348 346
309 310 311 312 315 318 315 313 318 326 332 331 324 320 321 324 326 330 332 330 328 332 336 337 338 339 341 343 347 349 350 349 349 349 349 350 352 350 343 337 340 342 341 343 344 343 345 346 347 348 349 349 349 349 350 350 350 351 351 351 351 351 351 352 352 351 351 351 351 351 351 351 351 351 351 351 351 351 352 352 352 353 352 352 351 350
309 310 311 311 314 315 315 318 328 334 330 326 321 318 320 322 321 325 330 328 326 328 329 331 333 335 338 343 344 344 347 350 350 350 349 350 352 353 350 340 339 343 343 344 346 345 346 348 348 348 349 349 349 350 350 350 351 351 351 351 352 352 352 352 352 352 352 351 352 352 351 352 352 351 351 351 351 352 353 353 353 354 354 354 354 353
309 310 311 312 314 315 316 321 331 334 328 324 322 319 319 320 319 323 331 329 324 325 327 328 330 331 335 342 344 344 347 349 350 350 350 350 352 354 353 347 339 341 344 344 345 346 346 347 348 349 349 349 350 350 350 351 351 351 351 352 352 352 352 352 352 352 351 352 352 352 352 352 352 352 352 353 353 353 353 354 354 355 355 356 356 356
309 310 311 312 314 316 317 319 325 330 328 326 324 319 317 318 318 321 329 331 324 323 325 327 328 328 331 339 344 345 348 349 349 349 349 349 351 354 355 352 343 340 343 344 345 347 348 348 349 349 350 350 350 350 350 351 351 351 352 352 352 352 352 352 352 352 352 352 352 352 353 352 352 353 353 353 354 354 354 355 355 356 357 357 357 357
309 310 311 312 314 316 317 319 326 332 332 326 321 316 315 319 318 318 325 330 326 323 324 325 326 325 327 334 339 343 348 350 349 348 347 347 350 353 355 354 349 344 343 344 345 346 347 349 349 350 350 350 350 351 351 351 351 351 352 352 352 352 352 352 352 351 352 352 351 352 352 352 353 353 353 354 354 355 356 356 357 358 358 358 358 358
309 310 311 311 313 313 315 320 325 330 329 321 316 315 317 320 320 321 328 331 326 323 323 324 323 322 324 328 333 338 346 351 350 346 343 346 349 351 354 355 353 349 345 344 345 346 347 348 349 350 350 350 351 351 351 351 351 351 351 352 352 352 353 352 351 351 351 351 351 352 352 352 353 353 354 354 355 356 357 358 358 359 359 359 359 359
311 311 312 312 312 313 315 319 322 324 322 317 315 316 318 319 321 326 333 332 325 322 323 322 322 321 322 325 328 332 338 342 343 341 340 345 349 351 352 354 354 353 351 347 346 346 346 347 348 349 349 349 350 351 351 351 351 351 351 351 352 352 352 352 350 350 350 350 351 352 352 353 354 354 355 355 356 357 358 358 359 359 359 360 360 360
313 314 314 313 314 315 316 317 320 321 318 315 316 317 317 320 324 329 331 327 323 322 322 321 321 320 321 322 324 326 328 331 333 335 339 345 349 350 351 352 353 355 354 352 351 348 347 347 347 348 348 348 349 349 350 350 350 351 352 352 352 352 352 351 351 350 350 351 352 353 353 354 355 355 356 357 356 357 358 358 359 360 360 361 361 361
315 316 316 315 316 318 319 320 322 321 316 315 316 316 317 322 326 326 324 321 320 321 321 320 320 319 319 321 322 322 322 323 327 333 339 345 347 348 350 351 352 354 355 356 355 353 351 350 349 348 348 348 348 348 348 349 349 350 351 351 352 352 352 351 352 352 352 352 353 354 355 356 356 357 357 358 358 358 359 359 360 360 361 361 361 361
314 315 316 315 315 318 320 321 323 321 316 315 316 315 316 318 319 317 317 317 316 316 317 319 319 317 318 319 321 321 320 320 324 331 337 342 345 347 349 350 350 351 353 356 357 357 356 355 354 354 352 351 350 349 349 349 350 350 351 351 352 352 352 352 353 353 354 355 355 356 356 356 357 358 358 358 359 359 359 359 360 360 361 361 362 362
312 313 315 314 314 316 318 318 318 317 314 313 315 316 315 314 313 313 313 313 312 312 313 316 317 317 317 317 319 321 320 318 320 325 332 338 341 344 347 348 349 349 350 352 354 356 358 358 358 359 359 358 356 354 353 352 352 353 353 353 354 355 355 355 356 356 356 357 357 357 358 358 359 359 359 360 360 360 360 361 361 361 361 362 362 362
311 311 314 314 312 313 316 316 314 313 311 311 313 315 313 312 311 310 311 311 310 310 310 312 313 314 315 316 318 320 320 318 316 318 324 331 335 339 345 347 348 348 348 349 350 352 354 357 358 358 360 361 361 360 358 356 356 357 358 358 359 359 359 359 359 359 359 359 359 359 359 360 360 360 360 360 360 360 361 361 361 362 361 362 362 362
311 311 312 312 310 311 315 315 312 311 310 309 311 313 311 309 309 309 309 310 310 309 309 309 310 312 314 315 317 318 318 318 316 314 319 326 331 336 343 347 347 348 348 349 349 349 350 352 354 355 357 358 360 360 360 359 359 360 360 360 360 360 360 360 359 359 359 359 359 358 358 358 358 357 358 359 360 360 360 360 361 361 361 361 362 362
310 311 310 310 309 312 315 314 310 309 309 308 311 313 312 310 309 308 308 309 309 308 308 308 309 312 313 315 316 316 316 317 317 314 315 322 327 331 337 343 347 348 348 349 349 350 350 350 351 352 353 354 355 356 356 356 356 357 357 357 357 356 357 357 356 356 355 354 354 354 354 354 354 355 355 356 358 359 359 359 360 360 360 361 361 361
310 311 310 309 309 311 312 310 308 309 311 311 312 313 312 310 309 308 307 308 309 308 308 308 309 311 313 315 315 314 314 316 317 315 314 319 324 326 329 337 344 347 348 348 349 350 351 351 352 352 352 352 352 352 351 350 349 349 349 348 348 348 350 351 351 351 350 349 349 349 349 350 351 352 353 355 357 358 358 359 359 360 360 360 360 360
309 310 309 308 308 309 309 308 307 309 312 313 311 310 310 308 308 308 308 308 309 309 309 309 309 310 312 315 315 314 314 314 315 315 313 316 320 321 322 328 338 345 348 348 348 348 349 350 351 351 351 351 351 350 350 349 347 347 346 343 342 342 341 342 344 346 347 347 347 346 346 347 349 351 353 355 356 358 358 358 359 359 360 359 360 361
309 309 308 308 308 308 308 308 307 308 309 309 308 308 308 307 307 307 308 308 309 309 309 309 309 309 311 314 314 313 313 313 313 315 314 313 316 318 316 319 328 339 346 347 347 348 348 347 348 349 348 349 349 348 349 349 348 348 347 346 346 346 343 342 342 345 348 349 348 348 349 349 350 353 354 356 357 358 358 358 358 359 360 360 361 361
308 308 308 309 309 308 308 307 307 307 307 307 307 307 308 308 307 308 308 309 309 310 310 309 308 309 311 313 313 311 312 311 312 315 315 313 313 315 314 314 319 330 340 345 346 347 348 347 347 348 348 347 347 347 347 348 348 347 347 347 348 348 348 348 347 348 353 355 354 355 356 356 355 355 357 358 359 359 359 359 359 359 360 361 361 362
Wind_Speed
14 5 6 12 12 13 12 10 8 3 2 4 4 4 5 5 5 5 4 3 5 4 6 9 11 13 10 9 13 22 27 23 20 22 24 28 30 33 35 37 40 43 45 43 42 43 43 43 44 43 42 42 42 43 42 43 43 43 42 41 41 40 39 38 37 36 34 33 32 30 28 27 25 23 22 21 22 22 19 17 15 14 13 12 11 9
12 7 11 15 11 8 8 7 7 6 7 3 2 3 4 5 5 5 4 2 3 3 5 7 9 13 11 9 12 19 19 17 21 24 25 30 32 33 36 38 41 41 39 37 39 42 42 43 44 43 43 43 43 43 43 43 43 43 43 42 42 41 40 39 38 37 36 35 33 31 30 28 26 24 22 22 22 23 20 18 16 15 14 13 12 10
8 10 15 12 7 6 6 7 9 9 9 7 4 3 3 4 3 6 5 2 2 3 4 5 8 11 10 8 11 17 18 21 31 33 33 35 34 33 37 39 39 37 36 38 41 43 44 44 44 44 45 44 44 43 42 42 42 42 43 42 42 42 41 40 39 38 37 35 33 31 29 28 27 25 23 22 22 22 21 19 17 16 15 14 13 11
6 10 13 9 7 8 7 7 9 8 8 7 6 5 5 4 2 4 4 1 1 4 4 4 5 7 7 5 8 18 25 27 33 36 36 38 39 41 43 43 41 40 39 40 42 44 45 45 45 46 47 46 44 43 43 42 42 42 42 42 42 42 42 41 40 39 37 35 33 31 30 29 28 27 25 24 23 22 22 20 19 17 17 15 14 11
7 7 8 10 8 9 9 8 9 7 6 8 8 7 6 5 4 4 3 3 3 3 3 3 2 5 4 6 6 14 21 22 26 29 29 32 38 41 40 39 40 43 44 43 43 45 46 48 49 49 48 47 46 46 45 43 42 42 41 40 40 40 41 41 40 40 38 37 35 33 32 31 30 29 28 26 25 24 23 22 20 19 18 16 15 12
9 8 9 14 12 12 11 10 9 8 5 6 10 10 8 7 5 3 4 4 4 5 3 3 3 6 4 7 9 9 11 14 17 20 23 30 34 34 32 33 38 42 44 45 46 47 48 49 49 48 48 48 49 48 46 44 42 41 40 39 39 39 39 38 39 39 39 38 37 36 35 34 33 32 31 29 27 25 24 23 21 20 19 18 17 14
7 8 9 12 14 14 11 10 9 9 6 6 9 9 8 7 5 3 1 1 2 4 4 1 4 5 5 5 9 9 11 15 15 15 22 29 30 31 34 37 40 41 42 44 44 45 46 47 48 49 50 51 51 50 47 45 43 42 41 40 39 38 37 37 36 37 38 38 37 36 37 37 36 35 33 30 27 25 24 23 22 21 20 20 19 16
7 9 9 10 12 13 10 11 10 11 9 6 6 9 8 8 7 5 3 4 3 4 5 2 4 4 4 5 7 9 13 15 15 16 19 25 29 33 36 38 41 43 44 45 44 44 46 48 50 52 53 53 52 50 48 47 45 43 42 41 39 38 37 36 35 35 37 37 37 36 36 37 37 37 34 30 28 26 25 24 23 22 21 21 20 18
9 11 11 10 9 9 10 12 12 13 10 5 7 11 9 9 8 6 4 4 2 3 6 4 4 3 5 6 5 6 11 14 16 18 18 22 30 35 37 39 41 44 46 47 47 47 48 50 51 52 53 53 51 49 49 48 46 44 43 41 40 39 38 37 36 35 35 35 36 36 35 36 37 37 35 32 29 28 26 25 25 24 23 22 21 20
6 10 13 11 8 8 9 10 11 13 10 4 7 8 7 8 7 6 6 4 2 4 10 7 4 4 6 5 4 4 9 12 13 15 15 22 33 38 39 40 42 43 44 46 48 49 49 50 51 50 50 50 51 51 50 49 47 45 44 43 42 40 39 37 36 36 35 35 35 35 35 35 35 36 36 34 32 30 28 27 25 25 24 23 22 21
5 8 15 12 9 7 6 7 9 14 11 5 6 4 4 4 4 5 4 3 3 8 11 9 6 5 6 5 6 6 6 8 9 11 13 19 28 35 38 40 42 42 43 45 47 48 48 48 47 47 47 48 50 50 49 49 48 47 46 45 44 42 40 39 37 36 36 36 36 35 35 34 34 35 36 36 35 32 30 28 26 25 25 23 23 22
6 7 8 8 13 11 6 6 8 12 12 6 5 5 2 1 1 2 1 4 7 10 8 8 7 7 9 7 6 7 7 10 11 12 14 16 23 33 37 40 42 43 45 46 46 45 44 44 44 46 48 48 48 49 49 50 49 49 48 47 46 44 43 41 39 38 37 36 36 35 35 34 34 34 35 36 35 33 31 29 27 26 25 24 23 23
6 8 4 3 14 16 8 5 5 7 10 8 5 6 5 3 1 4 3 3 7 7 4 7 7 7 10 9 7 9 9 11 13 15 17 19 26 35 39 42 43 44 45 45 45 44 43 45 47 49 50 49 49 50 50 50 50 50 49 48 47 46 45 43 41 40 38 37 36 36 35 35 34 34 35 35 35 34 32 30 29 27 26 25 24 23
4 7 7 6 8 13 13 9 6 6 7 9 8 6 7 5 4 6 5 3 5 5 3 6 6 4 5 6 11 13 12 14 16 21 26 28 32 38 42 44 44 44 45 45 45 45 45 48 50 50 51 51 51 51 51 51 51 51 50 50 49 48 46 45 43 41 39 38 36 35 35 35 34 35 35 35 35 34 33 31 30 28 27 26 24 23
4 4 8 8 4 7 13 10 7 7 6 9 8 7 7 5 5 5 4 4 4 4 5 4 5 5 4 4 9 13 16 20 23 27 31 32 34 38 38 39 41 42 44 44 45 45 48 50 50 50 51 51 52 52 52 52 52 52 52 51 50 49 48 46 45 43 41 39 37 35 35 35 35 35 35 36 35 34 33 32 31 30 28 26 24 22
3 5 3 4 9 4 9 10 9 8 6 8 7 7 8 5 4 3 3 5 3 3 6 4 4 5 4 5 6 5 12 19 23 27 27 29 31 30 28 32 37 40 43 43 43 46 48 49 49 49 50 51 52 52 52 53 53 53 53 52 51 50 49 47 46 45 43 40 38 36 35 34 35 35 36 36 36 34 34 33 32 31 29 27 25 23
2 6 7 12 15 8 5 6 10 11 6 4 7 9 6 5 5 3 4 1 3 5 6 3 4 4 2 7 5 3 7 10 15 18 20 25 27 23 25 32 37 40 42 43 45 47 48 48 48 50 51 51 52 53 54 55 55 55 54 52 51 50 49 48 47 45 43 42 40 38 37 35 35 35 36 36 36 34 33 32 32 32 30 28 26 25
2 6 9 9 8 9 13 12 8 14 9 4 7 9 5 6 5 4 4 2 3 7 5 2 6 5 4 6 4 5 7 8 11 12 14 19 20 21 27 34 38 42 45 46 48 49 48 48 49 50 52 53 54 55 55 55 54 54 53 52 51 51 50 49 48 46 44 43 42 40 39 37 36 35 36 36 36 34 33 32 32 32 31 29 28 26
2 4 7 3 4 9 14 10 6 10 13 8 6 8 7 5 7 6 5 6 6 6 5 3 4 5 6 6 5 8 10 10 11 11 12 14 14 20 27 32 37 42 44 45 47 47 46 47 49 50 52 53 53 54 54 54 53 53 53 52 51 50 49 48 48 47 46 44 43 41 40 38 37 36 36 36 37 36 34 33 31 31 31 30 29 28
1 0 4 3 3 8 8 3 4 8 12 9 5 7 7 5 6 7 4 3 4 4 4 3 2 4 6 6 8 11 11 11 11 10 11 12 16 23 27 30 35 38 41 44 46 46 46 48 50 51 52 52 52 52 52 52 52 52 52 52 52 50 48 48 48 47 46 45 44 43 41 40 38 37 36 36 37 37 36 34 32 31 31 30 30 30
1 1 3 6 7 6 4 3 4 4 5 6 5 7 7 3 2 4 3 2 4 4 3 3 4 5 5 5 9 12 12 12 12 12 11 13 19 26 29 31 35 38 42 46 47 47 48 49 51 52 51 50 49 48 49 50 52 52 52 51 52 51 49 49 48 47 47 46 44 44 42 41 39 37 36 36 36 37 36 35 34 33 32 31 30 30
0 1 2 5 6 3 6 6 4 2 2 3 4 5 8 5 3 5 5 3 4 4 4 3 4 6 5 4 8 11 11 11 13 13 12 15 23 29 31 33 36 39 44 47 49 50 50 51 51 51 49 47 46 47 49 51 52 52 52 52 51 51 50 49 48 48 47 45 44 43 42 41 39 38 36 36 36 36 36 36 35 34 33 33 32 31
3 1 1 5 5 7 16 18 13 9 6 5 5 4 5 4 5 6 6 4 3 3 3 2 4 7 6 6 8 9 10 11 14 15 12 16 25 30 33 36 37 39 44 47 49 50 51 52 51 49 48 47 48 50 50 51 51 52 52 52 51 51 51 49 48 47 46 45 44 42 41 41 39 38 36 36 35 35 35 35 34 34 34 34 33 31
4 1 1 4 5 7 14 14 8 5 3 2 3 3 3 3 4 6 4 4 4 4 3 4 8 8 5 5 7 8 8 8 12 17 16 18 24 28 32 36 36 39 43 45 46 47 49 49 46 45 46 48 49 50 50 50 51 52 52 52 52 52 51 50 48 47 46 46 44 43 42 41 40 38 37 36 35 34 33 33 33 33 34 34 33 32
5 1 1 2 2 4 7 5 1 3 4 2 4 5 4 7 6 3 2 3 3 7 8 6 8 8 3 1 2 4 5 4 6 12 17 19 22 25 30 34 37 39 42 43 44 45 44 42 41 43 46 48 50 50 50 51 51 51 52 52 52 52 51 50 48 48 47 46 45 45 44 42 41 40 38 36 35 33 31 31 32 32 33 33 33 32
4 2 1 2 3 4 5 3 2 2 5 4 6 8 7 7 7 5 2 3 5 7 8 6 9 8 1 2 1 0 3 4 5 7 12 17 21 22 25 32 37 39 41 43 43 43 42 42 43 45 47 48 50 51 50 51 51 51 51 52 52 51 51 50 49 48 48 47 47 46 45 44 42 40 38 37 35 33 32 31 31 32 32 32 32 32
3 3 3 4 5 5 4 3 3 3 5 7 9 13 12 8 7 4 2 5 6 4 5 7 10 8 6 4 5 3 5 6 6 6 8 15 22 24 25 31 36 40 43 44 43 42 42 43 45 47 48 49 51 51 51 51 51 51 51 51 51 51 50 49 49 48 48 48 47 47 46 44 43 41 39 37 34 32 31 31 31 31 31 31 32 32
2 3 4 6 7 9 8 9 9 6 7 10 11 13 14 12 9 5 6 6 3 5 7 8 4 7 13 9 4 4 7 7 6 7 11 17 24 28 30 31 35 40 43 42 41 41 42 44 46 47 48 50 50 50 50 50 50 50 50 50 50 49 49 48 48 48 48 48 48 47 46 44 42 41 38 36 34 32 31 30 30 30 30 31 32 32
2 3 3 4 7 10 10 11 12 9 9 10 10 12 15 14 11 9 9 8 5 6 9 6 5 9 11 6 4 2 5 8 9 12 16 20 24 28 31 32 34 38 40 39 39 41 44 46 47 48 49 50 50 50 49 48 48 48 48 49 48 48 48 48 47 47 47 48 48 47 45 44 42 41 39 36 34 32 31 30 29 29 30 31 32 32
2 4 4 4 6 10 11 12 12 9 7 8 9 10 11 13 13 11 11 10 10 10 8 6 9 10 4 5 6 7 5 5 8 11 14 18 21 26 30 32 34 36 38 39 40 43 46 47 48 49 49 49 50 49 49 48 48 48 48 48 48 47 47 47 46 46 47 47 47 45 44 44 43 41 39 37 35 33 32 30 29 29 30 30 31 32
3 3 2 1 3 8 9 8 7 7 7 7 6 6 9 11 8 6 7 6 6 8 9 8 10 8 4 6 6 8 10 10 10 13 16 18 19 23 28 29 31 35 37 39 42 44 46 46 47 47 47 49 50 50 50 49 49 49 48 47 47 47 46 46 45 45 46 46 45 44 44 43 43 41 40 38 36 34 33 32 30 30 29 30 31 31
3 3 3 2 1 5 5 4 4 6 6 6 2 8 12 11 8 3 1 4 3 4 5 6 6 5 6 8 6 7 11 12 12 14 17 22 24 18 23 26 29 34 38 40 43 44 45 44 45 46 47 49 50 50 50 49 48 47 47 47 47 46 45 44 44 44 44 44 44 43 43 43 43 42 40 38 36 35 33 33 32 31 30 30 30 31
3 3 2 1 1 4 4 4 7 5 4 4 1 6 8 8 8 6 6 10 8 3 2 2 4 5 7 7 7 9 12 12 11 14 18 22 27 20 16 23 27 33 39 42 43 44 44 44 45 48 49 49 50 51 50 50 49 48 48 47 45 44 43 43 43 43 43 43 43 43 43 42 42 41 40 38 36 34 33 34 34 33 32 30 30 30
5 5 3 0 1 4 6 6 5 4 4 4 3 5 7 6 8 8 8 12 13 8 5 4 5 8 9 7 6 6 9 11 12 18 23 24 28 23 11 18 23 28 33 37 41 43 44 44 45 47 47 48 49 49 49 48 47 47 45 44 43 42 42 42 42 42 42 42 42 42 41 41 41 40 39 37 35 34 34 34 34 33 32 31 30 31
6 6 3 1 2 4 6 4 3 6 4 5 7 8 9 4 6 8 7 14 18 15 13 12 11 12 12 8 8 8 5 9 15 24 31 29 29 26 11 11 19 24 28 31 36 40 41 42 43 44 45 46 46 45 45 45 44 43 42 41 41 41 41 41 40 41 40 40 41 41 41 41 40 39 38 37 36 35 35 35 34 33 32 32 32 32
6 5 3 2 3 2 3 2 4 4 2 4 5 8 10 5 7 10 7 14 19 17 15 15 13 14 13 11 12 8 2 5 16 27 35 32 29 27 17 2 13 20 25 29 33 37 39 42 43 43 43 44 44 43 43 43 43 42 41 40 40 39 39 40 39 39 39 39 40 40 40 39 39 38 37 36 36 36 36 35 34 33 32 32 32 32
8 5 2 2 2 2 2 3 1 2 2 3 3 5 7 5 8 8 3 8 14 15 15 14 14 15 14 15 17 10 2 3 12 21 32 34 29 25 19 7 8 16 20 25 29 32 35 37 39 40 41 41 42 41 41 42 41 40 39 38 39 38 38 38 38 38 38 38 37 37 37 36 36 35 35 35 36 36 35 33 32 31 31 32 32 31
9 6 2 1 1 1 2 3 1 2 3 1 2 6 10 10 10 8 3 2 10 17 19 15 13 16 15 16 22 16 5 3 7 12 25 33 29 25 21 14 9 14 17 21 24 27 29 31 33 35 36 37 38 38 38 39 39 38 37 37 37 37 37 37 36 36 36 35 34 34 33 33 32 32 32 33 33 32 31 30 30 29 29 30 30 29
11 7 3 2 2 2 2 2 1 2 3 2 7 12 16 16 10 5 4 3 9 18 23 18 14 17 16 17 22 16 6 7 5 9 22 28 27 26 24 20 15 15 19 20 22 23 25 27 29 30 32 33 34 35 35 36 36 35 35 35 35 36 36 36 34 33 32 31 30 30 31 30 30 30 30 30 30 28 28 27 27 27 28 29 29 27
8 6 4 4 5 4 4 2 2 1 1 6 11 15 21 19 7 4 3 3 9 17 23 20 17 19 21 21 19 12 8 7 5 11 20 24 25 28 27 24 21 18 19 21 23 23 23 25 27 28 29 31 31 32 32 32 33 33 33 33 33 34 34 33 31 28 27 27 28 29 30 30 30 30 30 29 28 27 26 26 26 27 29 29 28 27
4 4 5 6 5 5 5 2 2 1 2 9 14 19 24 16 2 4 2 2 9 17 21 21 21 22 24 22 17 12 11 12 11 14 21 27 29 29 28 26 25 22 22 22 24 25 25 26 26 27 27 27 27 28 28 28 29 30 31 31 31 32 31 29 27 26 25 26 27 29 30 30 30 29 29 28 27 27 27 27 28 28 29 28 28 28
1 2 2 3 2 3 3 1 0 2 4 14 17 19 20 8 3 3 5 7 12 19 21 22 23 25 26 23 19 18 19 19 20 24 30 32 30 29 29 28 27 26 25 24 25 26 27 28 27 26 26 25 25 26 26 26 27 28 28 29 29 28 27 25 25 25 25 25 27 29 30 30 30 29 29 28 29 29 29 29 29 29 29 30 30 30
3 1 1 1 2 2 0 1 1 2 7 19 17 12 13 8 3 7 10 13 18 22 24 25 24 27 29 26 22 23 25 26 30 34 36 34 31 29 28 27 27 27 26 26 26 26 27 28 27 26 24 23 24 25 25 26 27 27 27 28 27 27 26 25 26 26 26 27 28 28 29 30 29 29 29 29 30 30 29 29 29 30 31 31 32 32
5 4 1 2 3 2 1 3 3 1 8 18 14 5 7 7 8 13 15 15 19 24 25 26 26 28 31 29 26 26 28 31 35 37 36 34 32 30 28 26 25 26 25 24 24 25 27 29 29 27 25 23 23 24 26 27 28 28 28 28 26 26 25 25 25 26 26 27 28 28 29 29 28 29 29 29 30 30 30 30 31 31 31 32 33 33
7 7 4 2 3 3 1 3 4 3 11 17 12 6 7 9 13 19 20 18 21 25 25 26 29 31 31 30 29 28 29 31 34 35 35 33 32 30 28 25 24 23 24 22 20 20 23 26 28 28 28 27 26 26 27 28 29 29 28 27 25 23 23 22 22 22 23 23 24 24 24 25 25 26 26 27 29 30 30 30 30 31 31 31 32 33
9 11 7 3 4 4 0 5 6 9 17 19 10 5 7 9 13 22 24 21 23 24 23 24 28 30 30 29 29 30 30 30 30 32 34 34 32 31 28 25 23 22 23 23 21 18 18 20 23 25 27 27 26 26 27 27 27 27 27 26 25 23 22 22 22 22 22 22 21 21 21 21 21 21 22 24 27 29 28 28 29 29 29 30 31 31
9 14 9 4 6 6 1 6 10 18 24 18 6 2 6 10 15 23 26 24 24 23 22 22 24 25 25 25 26 28 29 29 29 30 32 33 31 30 28 26 24 22 22 23 23 21 19 19 21 22 23 23 22 22 23 24 25 25 24 24 24 23 23 22 22 23 23 22 22 22 22 22 22 21 21 22 25 27 28 28 29 29 29 29 29 28
9 13 9 6 8 6 1 6 18 22 16 6 5 3 10 18 23 29 31 29 27 25 22 20 21 22 21 21 24 26 26 27 28 28 29 31 31 28 27 26 23 21 20 21 22 22 22 22 22 22 22 21 20 19 19 19 19 18 18 18 19 19 19 19 20 20 20 21 21 21 22 22 23 23 22 23 24 26 27 28 29 30 29 27 26 25
9 9 8 7 7 4 2 9 20 17 9 10 10 13 20 26 30 32 33 31 30 28 24 20 19 18 16 17 21 24 23 25 26 25 24 28 29 28 26 24 22 20 19 19 19 20 20 21 20 21 21 21 20 20 20 20 18 16 13 12 11 11 12 13 14 15 15 16 16 17 18 20 21 22 23 24 24 25 26 27 28 29 27 25 24 23
9 6 7 7 6 4 5 11 16 10 4 10 19 22 24 27 29 30 31 31 29 27 25 22 20 17 13 11 16 21 22 22 22 20 19 23 27 27 26 23 21 18 16 16 17 17 17 18 17 17 18 19 19 19 19 20 19 18 16 13 11 8 7 8 9 11 11 11 12 13 15 17 18 19 20 21 21 22 23 24 25 25 25 23 22 20
12 9 10 9 6 7 11 15 16 12 11 16 21 23 25 27 27 28 29 28 27 25 23 21 21 18 13 10 12 17 19 19 17 16 16 19 23 25 25 23 21 18 15 14 13 14 15 15 14 14 15 15 16 16 17 17 17 16 15 14 12 10 7 7 8 9 10 9 10 11 12 13 15 16 16 16 16 16 17 19 21 21 21 20 19 18
Wind_Direction
173 169 200 207 216 205 206 204 195 251 239 154 161 187 190 202 246 246 237 237 158 164 229 210 216 226 205 188 190 184 184 186 183 181 186 188 190 191 194 197 200 203 206 205 203 204 206 208 210 211 212 213 214 216 217 217 217 216 216 216 215 216 216 216 217 218 218 217 216 215 216 217 217 215 214 214 216 217 214 211 211 213 213 214 218 219
175 194 220 213 211 200 199 189 181 235 258 255 196 209 227 217 241 257 243 235 162 168 253 225 220 235 217 190 189 183 183 188 186 185 189 190 193 195 197 200 202 204 205 203 203 204 206 208 209 210 212 213 215 216 217 218 219 219 218 218 217 217 218 218 218 219 220 219 217 217 217 218 219 218 218 217 217 218 217 213 214 215 219 221 223 227
192 221 223 207 181 177 186 177 176 205 233 250 247 223 252 240 258 275 259 241 162 185 261 231 213 239 231 197 187 183 186 196 194 191 191 191 193 196 199 201 202 202 202 202 204 204 205 207 209 210 212 214 216 217 218 219 219 220 220 220 219 219 219 220 220 221 222 222 221 220 220 220 221 222 223 222 220 220 219 217 217 218 222 226 228 232
199 233 220 187 153 178 191 179 176 190 214 229 230 224 237 231 211 253 270 298 190 212 235 214 210 248 238 200 194 194 194 198 199 198 196 193 193 197 201 201 199 199 201 202 203 204 205 206 208 210 212 213 215 216 218 218 218 220 220 220 220 220 220 222 222 223 223 224 225 224 224 224 223 223 225 224 223 221 221 221 221 221 223 227 230 232
224 258 198 167 171 191 197 193 183 186 210 220 221 224 221 214 211 235 298 338 332 286 231 171 249 284 231 192 209 205 200 202 202 201 201 200 200 202 203 202 200 200 201 202 203 204 204 206 208 210 212 212 214 216 217 217 217 217 219 219 219 220 221 222 224 225 225 225 226 225 225 225 224 223 224 224 223 222 223 222 221 222 224 227 229 227
241 258 169 162 185 196 203 207 196 189 206 230 223 220 208 200 214 244 321 353 360 315 273 162 227 282 263 207 210 201 200 208 203 200 204 206 205 204 203 203 204 203 203 204 204 204 205 206 207 209 211 212 214 216 216 216 216 216 217 218 219 220 221 223 224 225 225 226 226 225 223 223 222 222 224 225 224 224 225 224 223 224 226 228 227 224
225 233 175 173 189 188 204 216 201 186 199 239 217 200 193 180 179 190 265 286 223 261 267 157 191 261 306 249 218 192 194 204 201 200 207 207 205 202 203 204 204 205 204 205 206 205 205 206 207 208 211 213 214 216 216 216 217 216 217 217 218 220 222 223 223 224 225 226 227 226 225 225 224 224 225 227 227 227 228 229 228 228 229 229 227 225
185 207 188 189 192 183 201 212 196 181 197 234 174 152 172 180 182 185 184 219 231 272 269 194 156 235 288 261 230 192 196 206 201 204 209 207 205 204 206 207 205 205 205 204 205 205 205 206 207 209 211 213 214 215 215 216 217 217 218 219 219 220 222 223 223 223 224 225 227 226 226 226 227 227 228 228 228 228 230 231 232 232 233 232 229 226
171 201 192 185 196 195 204 204 189 183 203 229 151 146 169 186 195 191 191 229 253 314 272 231 153 225 269 265 256 193 199 214 206 207 209 203 205 207 208 209 208 208 207 206 205 206 207 207 209 211 212 213 214 214 215 216 217 218 219 220 220 221 222 223 223 223 223 224 226 227 227 227 227 228 229 230 230 230 231 232 233 235 235 234 230 227
187 199 185 183 205 205 205 203 183 186 211 211 154 153 158 175 190 187 190 212 228 258 253 238 168 212 267 258 243 207 204 217 212 211 212 205 206 208 208 209 209 209 209 209 208 208 209 209 210 211 212 212 213 214 216 216 217 218 219 220 221 222 223 224 224 225 225 225 226 227 229 228 227 227 229 230 231 232 233 234 235 236 236 234 230 227
253 205 184 193 209 190 184 197 183 190 201 162 139 146 141 166 170 175 178 152 209 248 244 231 182 192 259 236 203 216 205 198 207 216 217 210 210 210 210 209 209 209 209 210 211 210 211 211 210 210 212 212 213 214 214 215 217 218 219 219 221 222 223 224 225 226 226 226 227 228 229 229 228 227 228 229 230 231 233 234 235 235 236 235 232 229
258 227 195 198 198 180 158 190 193 194 195 170 149 147 146 266 124 160 155 140 212 243 236 217 184 188 240 237 200 216 211 192 201 215 213 209 211 212 212 211 210 209 210 210 211 210 209 209 209 210 212 213 212 212 213 214 215 217 219 220 221 222 222 224 226 226 227 228 228 228 229 230 230 230 229 229 230 231 232 232 234 235 235 235 234 231
239 230 231 222 196 185 168 184 198 196 196 191 170 152 174 218 169 191 207 189 223 244 221 185 172 198 240 246 219 215 218 208 206 214 213 208 209 210 210 211 210 210 210 210 210 209 208 208 210 210 211 212 212 212 212 213 214 216 218 219 220 222 222 223 225 226 227 228 228 228 228 230 231 232 232 232 232 233 233 233 234 235 235 234 233 231
245 221 221 230 209 189 183 186 190 189 194 195 184 173 184 185 184 205 214 227 241 251 223 160 160 219 253 248 222 208 215 221 216 219 220 216 212 211 210 209 208 209 210 210 209 208 208 210 211 210 210 211 212 212 212 213 214 215 217 219 220 222 223 223 225 226 227 227 227 228 228 230 231 232 234 234 234 234 234 234 235 236 236 235 234 233
229 231 211 209 225 195 193 200 187 167 180 198 190 185 197 189 185 191 190 214 232 254 243 170 167 207 191 220 221 200 205 216 220 226 226 225 220 215 212 207 206 208 209 210 210 209 210 211 212 211 211 212 212 212 212 212 213 214 216 218 220 222 222 223 224 225 226 226 226 227 228 231 232 233 235 236 235 235 234 235 235 237 238 237 237 237
245 268 255 299 327 295 211 206 174 153 185 198 179 193 213 189 151 165 198 199 173 239 246 204 204 221 202 256 266 200 199 206 217 227 227 229 226 216 207 204 204 208 209 210 209 210 212 212 212 211 211 212 212 212 212 213 213 214 216 218 220 222 222 223 224 225 226 227 226 227 228 230 232 234 236 237 237 236 235 235 235 237 239 239 240 240
303 280 312 332 324 304 262 237 185 171 184 179 175 201 203 140 140 203 238 204 123 218 239 201 226 259 268 272 275 185 193 202 214 224 224 227 223 204 197 201 203 206 208 209 210 212 212 211 212 212 212 213 212 212 213 213 214 214 216 217 219 221 222 223 225 226 227 227 227 227 228 230 232 234 236 237 237 236 235 235 236 237 239 240 241 241
340 288 298 314 292 302 338 324 235 187 165 146 188 192 140 118 173 204 227 235 192 227 259 215 214 212 198 249 248 167 192 214 218 221 224 227 215 194 197 201 202 204 207 210 212 213 212 211 212 212 213 214 214 214 214 214 214 214 216 218 219 220 221 223 225 226 227 228 227 228 228 229 232 234 235 236 237 237 236 236 236 237 237 238 239 240
7 300 295 277 246 310 338 331 261 200 184 185 183 164 142 162 199 190 198 216 210 234 282 280 227 207 201 227 210 185 199 214 219 221 224 226 208 197 202 202 201 203 205 208 211 212 211 211 213 213 214 215 214 215 214 214 213 214 215 218 220 222 224 225 225 226 227 228 228 228 229 230 231 233 235 236 237 237 237 237 237 237 237 237 238 239
350 262 284 301 342 329 321 256 215 212 203 196 162 155 171 193 196 188 187 188 192 224 258 265 256 234 228 210 183 193 201 200 207 215 221 222 211 205 204 202 201 201 202 206 210 211 211 212 214 214 214 215 214 214 213 212 212 214 215 216 219 221 223 224 225 226 226 227 228 229 229 230 231 233 234 235 236 237 237 238 238 238 238 238 238 239
325 124 264 306 343 339 282 215 205 219 207 201 187 175 190 206 182 192 209 177 179 196 221 247 261 256 251 204 182 196 202 196 197 203 213 219 214 211 208 203 201 201 203 206 208 210 212 214 215 215 215 214 213 212 211 211 212 214 214 215 217 219 221 223 224 225 226 227 227 229 230 230 231 232 234 235 236 237 238 239 240 240 241 241 241 240
307 127 253 294 329 308 262 279 302 333 344 245 228 195 196 194 140 182 226 223 193 198 191 212 259 261 253 207 188 198 201 199 197 197 208 216 211 212 213 208 204 203 205 207 209 210 212 214 214 214 212 210 210 210 211 212 212 212 214 215 216 218 220 222 224 225 226 227 228 229 230 231 232 232 234 235 236 237 238 240 241 242 243 244 242 242
263 193 273 269 273 263 265 275 281 278 273 254 246 228 210 187 151 187 223 214 193 218 197 198 276 268 239 202 197 203 201 203 205 199 203 216 213 211 213 213 209 207 209 211 210 210 211 213 213 211 208 207 209 211 211 211 211 212 213 214 215 216 219 222 223 225 226 227 229 230 231 231 232 233 234 235 237 238 239 240 241 243 243 243 243 243
306 201 281 287 281 274 269 268 272 277 260 230 273 291 278 263 222 205 202 175 183 210 190 222 263 264 245 207 204 214 209 198 206 207 207 217 218 213 215 216 212 210 213 213 212 211 212 212 210 206 205 206 207 210 210 210 211 211 212 214 215 217 219 221 223 224 226 227 229 230 230 231 232 233 234 235 237 238 239 240 242 243 243 243 243 242
339 247 126 5 341 292 276 256 252 9 15 353 309 305 314 322 311 271 169 138 204 208 177 188 247 250 265 285 217 236 241 223 221 219 217 225 223 215 214 217 216 215 215 214 212 211 210 208 206 205 204 204 206 208 209 209 210 210 211 213 215 217 219 220 221 223 225 227 228 229 229 230 231 232 233 234 236 237 239 240 242 243 243 243 243 241
301 256 180 110 152 205 224 198 172 336 334 321 308 305 317 342 337 303 216 179 227 217 175 184 235 237 261 42 103 348 264 250 261 247 233 237 236 225 216 217 219 218 216 215 212 209 207 205 205 205 204 204 205 207 208 208 208 210 211 213 216 217 218 219 220 222 224 226 227 228 229 230 231 232 233 234 235 237 238 240 241 242 243 243 243 243
275 241 219 198 203 224 243 259 239 263 297 297 304 306 303 306 313 305 240 210 209 191 187 216 237 246 253 223 191 208 229 231 255 265 248 243 243 238 227 221 220 219 218 217 212 206 204 203 204 205 204 204 205 206 208 208 208 209 210 212 215 216 217 218 218 220 222 225 227 228 230 230 231 232 233 233 235 236 238 239 241 242 243 244 245 244
276 264 241 214 231 251 265 278 274 271 278 278 285 292 291 295 299 277 250 241 175 163 224 236 237 254 256 246 208 214 227 228 240 244 243 244 245 245 240 231 224 220 217 215 210 204 202 202 204 204 203 203 204 205 207 207 208 209 210 212 213 214 216 217 218 219 222 224 226 228 230 231 232 233 233 234 234 235 236 237 239 241 243 245 245 245
264 279 252 220 252 261 259 266 267 264 261 259 263 271 280 289 285 260 253 253 218 215 237 225 193 231 256 294 358 309 240 240 250 254 258 258 253 248 244 235 225 218 213 210 206 203 202 202 202 203 202 201 202 203 204 205 206 207 209 210 212 213 215 216 218 219 221 223 225 228 230 231 232 233 233 234 234 234 234 235 237 239 242 244 245 244
270 273 245 241 276 275 267 261 254 244 243 252 256 261 276 285 274 253 247 249 248 253 255 225 215 230 269 350 333 311 301 282 285 299 302 292 272 252 242 234 223 214 208 205 203 202 203 203 203 202 200 199 200 202 203 203 205 206 208 209 211 213 215 216 218 220 221 223 226 229 230 230 231 232 233 233 234 234 233 234 236 238 240 243 244 244
268 268 276 300 290 282 272 250 228 225 230 242 261 296 322 320 299 250 237 256 268 266 267 255 240 246 318 342 315 329 360 15 8 354 344 331 305 263 238 226 214 206 203 202 202 202 204 203 201 199 198 197 200 202 203 204 205 206 207 208 210 213 215 216 218 220 222 225 227 229 229 230 231 232 232 233 234 234 234 234 235 237 240 243 244 244
274 289 331 19 321 287 261 220 255 264 226 215 295 351 346 345 0 27 39 19 344 275 295 300 267 271 315 323 326 354 15 27 21 360 348 344 336 295 238 217 203 198 199 201 200 201 202 200 198 198 198 198 200 202 203 203 203 204 206 208 210 213 213 215 218 220 223 226 227 228 229 229 230 231 232 233 234 235 236 236 236 238 239 242 243 244
253 274 306 26 297 275 256 279 303 288 196 198 313 8 349 342 7 27 36 22 0 330 25 325 268 292 308 317 351 16 25 28 20 5 355 349 345 324 252 215 201 197 198 200 199 200 200 199 199 200 200 199 201 204 205 204 204 207 208 209 209 210 212 214 217 220 222 225 226 228 229 230 231 232 233 234 235 236 237 237 238 238 239 241 243 244
241 245 261 326 232 263 284 308 295 216 178 186 140 58 8 345 6 20 36 25 12 15 22 331 306 325 317 315 349 7 24 29 22 14 9 2 356 344 285 220 207 202 200 200 199 199 199 199 200 201 201 201 203 205 205 204 206 207 206 205 207 209 212 213 216 218 222 225 227 228 230 231 232 234 235 235 236 237 238 238 239 239 239 241 242 243
238 239 248 227 216 272 305 310 203 178 170 156 127 49 12 1 356 355 32 35 20 14 8 351 335 331 325 319 317 308 334 28 32 23 17 12 6 358 332 226 210 205 202 200 199 198 198 199 199 199 200 201 202 202 202 202 204 204 203 205 207 210 212 214 216 220 223 226 228 229 231 232 233 235 236 236 237 238 239 239 240 240 241 242 243 244
226 238 247 237 232 276 312 281 185 161 85 84 89 24 8 15 351 343 24 37 19 10 6 353 337 331 327 322 325 319 307 36 36 28 20 16 12 7 2 266 205 207 207 204 201 199 199 199 200 199 198 199 200 201 201 202 203 204 204 206 209 211 213 215 218 222 225 227 228 229 231 232 233 235 236 237 238 239 239 240 241 242 243 243 245 246
216 228 232 233 233 231 279 290 249 146 42 23 48 9 349 333 323 323 356 37 19 9 360 346 337 338 336 334 340 338 257 46 32 22 15 16 17 16 19 43 177 194 204 206 203 202 200 199 199 198 197 198 200 201 202 202 204 204 204 206 208 211 213 216 220 224 226 228 229 230 232 233 234 235 236 237 238 239 240 241 242 243 243 244 245 245
212 218 200 199 255 292 291 293 303 150 162 203 316 317 309 299 296 287 257 38 19 6 356 345 339 343 345 347 345 335 312 41 30 3 3 12 20 27 35 54 115 163 183 195 198 199 199 198 198 198 197 199 200 201 203 203 204 205 204 205 208 210 213 217 221 225 227 229 231 232 232 233 233 234 235 236 237 238 239 241 241 242 243 244 245 246
207 213 218 252 277 312 294 260 258 165 148 353 322 309 307 309 303 253 204 47 14 357 352 350 347 349 352 352 348 344 11 59 37 343 354 8 23 34 44 56 81 124 154 171 184 191 194 196 197 197 198 200 200 201 203 204 205 206 206 207 209 210 213 218 222 226 228 230 232 233 233 234 233 234 235 235 237 238 239 239 240 241 243 244 245 246
203 207 219 235 243 254 244 252 313 160 106 342 325 313 311 310 299 178 162 30 3 350 350 352 353 352 353 354 356 5 33 36 344 327 352 16 37 45 50 57 68 94 126 146 163 175 182 188 191 192 196 200 200 201 202 204 206 208 209 209 210 212 215 220 223 226 228 231 233 234 235 235 235 236 237 237 239 240 240 241 242 242 244 245 246 247
194 198 214 220 229 244 227 225 336 145 23 339 325 322 320 308 239 117 75 16 349 344 350 357 357 354 354 0 11 12 2 355 343 348 15 39 49 49 53 60 68 85 105 125 144 158 167 175 182 187 191 195 197 197 199 201 204 207 209 210 211 215 219 223 225 227 230 232 235 236 237 238 239 240 241 242 244 245 244 245 245 245 245 246 247 248
166 193 228 221 234 269 221 188 315 158 21 349 334 337 344 348 137 58 28 36 6 351 351 356 358 358 357 360 9 4 353 357 12 25 39 48 48 46 52 62 71 82 95 111 128 142 153 161 169 176 181 186 189 192 193 195 197 201 204 206 210 215 218 221 224 227 230 232 235 238 239 241 242 244 245 247 247 247 248 249 249 249 249 249 249 250
9 348 14 3 338 326 270 56 52 141 6 354 346 353 13 30 49 3 10 20 10 360 354 351 355 360 357 354 358 358 356 8 25 36 43 47 46 46 51 57 65 75 87 100 112 125 138 146 152 159 166 173 180 183 187 189 190 192 195 198 204 209 212 216 220 224 227 231 234 237 240 242 244 245 246 248 247 248 249 250 250 250 250 250 250 251
15 360 20 30 7 360 47 47 53 104 357 357 2 37 50 40 25 15 14 10 4 2 356 348 348 353 355 353 352 353 359 13 26 34 39 42 43 44 47 54 61 68 78 87 98 112 125 133 137 140 145 153 162 171 179 184 184 185 187 191 195 201 206 211 217 222 227 231 234 237 239 241 244 245 246 247 247 248 248 249 249 250 251 251 251 252
22 352 327 331 4 357 26 72 76 45 359 357 1 32 47 36 17 12 12 5 357 357 354 346 344 348 353 355 354 355 0 9 19 27 32 34 35 39 46 54 60 66 74 79 87 100 113 123 128 131 134 138 146 156 168 177 179 177 177 180 183 189 195 201 207 213 219 224 228 231 233 235 237 240 242 244 245 246 246 247 248 249 249 250 251 251
19 1 345 327 331 321 135 99 71 6 343 339 334 340 359 358 355 357 359 355 349 348 350 347 344 346 351 356 357 357 360 5 14 24 29 29 32 38 46 54 60 67 73 76 80 89 102 114 122 125 127 131 138 146 155 164 169 168 168 171 175 181 188 192 196 200 204 210 214 217 221 224 226 230 234 238 242 244 245 245 246 247 248 249 250 251
10 8 3 343 339 329 110 78 24 341 325 319 294 256 329 330 332 337 340 338 336 337 343 345 343 344 350 356 356 356 0 7 14 22 24 23 25 31 39 46 56 65 72 74 78 87 96 104 110 114 116 119 126 136 145 154 161 163 165 170 177 184 190 194 197 201 205 210 214 215 217 218 219 221 225 230 235 239 241 242 244 244 245 246 248 250
346 355 355 346 345 333 278 16 358 345 341 6 98 73 349 336 326 322 323 324 324 326 331 337 337 339 346 352 350 351 359 7 13 19 20 15 13 21 30 38 48 61 71 75 77 83 90 96 100 103 106 107 110 116 124 131 140 148 157 167 177 185 191 196 201 203 206 212 216 217 217 217 217 217 219 223 228 232 234 236 239 241 242 244 246 249
331 340 344 333 328 316 312 356 353 357 34 52 18 338 328 325 319 315 316 316 316 318 323 326 328 331 339 346 344 343 349 1 9 16 16 7 3 9 18 28 40 53 65 75 76 77 82 88 93 97 98 98 100 103 104 105 107 112 123 139 156 172 185 194 201 205 206 207 209 212 215 216 216 216 218 222 225 226 227 228 231 235 238 241 244 247
350 348 343 335 335 343 345 344 343 340 332 330 324 315 309 311 311 309 310 310 310 312 316 317 317 321 328 340 338 332 336 350 3 9 8 0 357 359 4 15 29 43 56 68 74 76 78 79 81 87 92 93 95 97 97 97 97 97 99 104 114 133 159 178 190 200 204 202 198 200 205 209 211 214 217 221 223 223 224 224 227 230 233 236 239 242
359 347 339 338 331 318 318 321 324 316 297 298 303 302 303 304 302 300 301 302 303 306 311 311 310 310 313 323 327 325 330 344 355 358 357 355 354 356 358 4 16 30 43 53 64 72 74 72 71 75 80 84 88 91 91 92 92 91 91 92 94 102 123 148 168 181 188 188 186 188 193 200 205 209 213 216 216 216 218 222 225 226 228 230 232 234